Regional Weather Roundup
Issued by NWS Charleston, SC

Current Version | Previous Version | Graphics & Text | Print | Product List | Glossary On
Versions: 1 2 3 4 5 6 7 8 9 10 11 12 13 14 15 16 17 18 19 20 21 22 23 24 25 26 27 28 29 30 31 32 33 34 35 36 37 38 39 40 41 42 43 44 45 46 47 48 49 50
590 ASUS42 KCHS 242011 RWRCHS REGIONAL WEATHER ROUNDUP NATIONAL WEATHER SERVICE CHARLESTON SC 300 PM EST FRI FEB 24 2017 NOTE: "FAIR" INDICATES FEW OR NO CLOUDS BELOW 12,000 FEET WITH NO SIGNIFICANT WEATHER AND/OR OBSTRUCTIONS TO VISIBILITY. NOT ALL STATIONS ARE QUALITY CONTROLLED. USE DATA WITH CAUTION... ESPECIALLY DEWPOINT OBSERVATIONS. SCZ027-030-031-034>040-042>050-242100- ...SOUTHEAST SOUTH CAROLINA... CITY SKY/WX TMP DP RH WIND PRES REMARKS N CHARLESTON MOSUNNY 79 58 48 E10 29.82F WATERFRONT PRK N/A 69 64 84 SE9 29.82F MOUNT PLEASANT FAIR 75 63 64 E7 29.83S JOHNS ISLAND FAIR 75 63 64 E9 29.84S PINOPOLIS N/A 68 63 83 NW7 29.76S MONCKS CORNER MOCLDY 77 55 47 NE3 29.82F SUMMERVILLE FAIR 79 55 44 SE7 29.82F BEAUFORT MCAS MOSUNNY 79 62 56 SE5 29.83F BEAUFORT ARPT FAIR 77 61 57 E8 29.83S HILTON HEAD IS SUNNY 72 64 78 NE7 29.85S WALTERBORO CLEAR 81 55 41 SE5 29.83F ALLENDALE FAIR 81 55 41 VRB6 29.81F ...SOUTHERN MIDLANDS AND PEE DEE... CITY SKY/WX TMP DP RH WIND PRES REMARKS GEORGETOWN FAIR 73 59 60 E8 29.85F KINGSTREE MOCLDY 77 55 47 E5 29.83F ORANGEBURG SUNNY 78 55 44 VRB3 29.83F BARNWELL FAIR 81 57 44 VRB6G12 29.82F AIKEN FAIR 75 52 43 SE3 29.86F MANNING MOCLDY 77 55 47 MISG 29.82F COLUMBIA MOSUNNY 80 54 40 E6 29.82F SUMTER SUNNY 78 55 45 S5 29.81F FLORENCE MOSUNNY 78 56 46 CALM 29.83F MYRTLE BEACH MOSUNNY 72 63 73 SE12 29.87S N MYRTLE BEACH SUNNY 71 61 70 E10 29.85S $$ GAZ063-065-086>088-099>101-113>116-118-119-134>141-150-242100- ...SOUTHEAST GEORGIA... CITY SKY/WX TMP DP RH WIND PRES REMARKS SAVANNAH ARPT MOSUNNY 78 58 49 E6 29.83F HUNTER AAF SUNNY 78 64 62 E9 29.81S FORT STEWART SUNNY 78 60 53 E5 29.80F STATESBORO SUNNY 81 60 49 S7 29.82F SYLVANIA CLOUDY N/A N/A N/A NE6 29.83F CLAXTON MOCLDY 81 61 49 NE7 29.82F ...CSRA...CENTRAL AND FAR SOUTHEAST GEORGIA... CITY SKY/WX TMP DP RH WIND PRES REMARKS THOMSON MOSUNNY 80 57 46 CALM 29.88S AUGUSTA-BUSH SUNNY 82 54 37 E9 29.81F AUGUSTA-DANIEL SUNNY 80 51 36 SE8 29.84F SWAINSBORO FAIR 79 55 44 CALM 29.84S VIDALIA MOSUNNY 82 61 47 E6 29.82F EASTMAN FAIR 83 33 16 S5 29.84F HAZLEHURST FAIR 82 60 48 E8 29.81F ALMA PTSUNNY 83 60 45 VRB5 29.81F WAYCROSS SUNNY 83 64 52 E5 29.80F JESUP FAIR 82 59 44 E10 29.82S BAXLEY PTSUNNY 81 63 54 SE3 29.81F BRUNSWICK SUNNY 77 66 69 NE9 29.84S SAINT SIMONS SUNNY 74 62 66 NE14 29.83F $$ SCZ027-028-034-036>038-045-046-048>050-GAZ119-141-242100- ...LAKE AND SUPPLEMENTAL COASTAL OBSERVATIONS... STATION/POSITION TIME TEMP WIND PRES WAVE SWELL AIR SEA DIR/SP/G HT/PER HT/PER/DIR (UTC) (F) (DEG/KT/KT) (MB) (FT/S) (FT/S/D) WINYAH BAY 1845 69 80/ 11 1011.0 LAKE MURRAY 1920 75 CALM 1009.8 ACE BASIN NERRS 1845 78 100/ 3 1010.0 FORT PULASKI 1948 65 63 90/ 9/ 11 1010.7F SAPELO ISLAND 1900 75 70/ 10 1010.0 $$ ANZ835-935-AMZ111-154-330-350-352-354-370-450-454-472-242100- ...C-MAN AND BUOY OBSERVATIONS... STATION/POSITION TIME TEMP WIND PRES WAVE SWELL AIR SEA DIR/SP/G HT/PER HT/PER/DIR (UTC) (F) (DEG/KT/KT) (MB) (FT/S) (FT/S/D) BUOY 41004 1850 68 71 20/ 14/ 16 1010.0 8/10 8/120/10 BUOY 41008 1850 63 63 30/ 10/ 10 1009.9 5/ 8 5/ 90/ 8 FOLLY BEACH CMAN 1900 65 70/ 8/ 10 1011.4F CAPERS NEARSHORE 1908 63 61 70/ 8/ 12 1010.7F FRIPP NEARSHORE 1908 64 62 60/ 8/ 12 1010.4F STATION/POSITION TIME TEMP WIND PRES WAVE SWELL AIR SEA DIR/SP/G HT/PER HT/PER/DIR (UTC) (F) (DEG/KT/KT) (MB) (FT/S) (FT/S/D) 5E ST. MARYS GA 1930 65 N/A 5/10 2/110/11 FRYING PAN BUOY 1950 69 72 20/ 12/ 16 1010.3F 7/11 7/150/11 BUOY 41025 1950 72 74 110/ 14/ 16 1011.1 7/ 9 7/150/ 9 CAPE LOOKOUT NC 2000 69 70/ 4/ 4 1010.9R BUOY 41002 1950 69 70 70/ 12/ 16 1006.2S 12/11 11/110/11 BUOY 41010 NOT AVBL ST AUGUSTINE FL 2000 66 68 360/ 10/ 11 1010.5F $$

USA.gov is the U.S. government's official web portal to all federal, state and local government web resources and services.